Time,TemperatureF,DewpointF,PressureIn,WindDirection,WindDirectionDegrees,WindSpeedMPH,WindSpeedGustMPH,Humidity,HourlyPrecipIn,Conditions,Clouds,dailyrainin,SolarRadiationWatts/m^2,SoftwareType,DateUTC
2013-03-10 00:00:00,38.4,37.1,30.29,North,4,0.0,0.0,95,0.00,CLR,SKC,0.00,0.0,WeatherDisplay:10.37,2013-03-10 05:00:00,
2013-03-10 00:01:00,38.9,37.6,30.29,North,4,0.0,0.0,95,0.00,CLR,SKC,0.00,0.0,WeatherDisplay:10.37,2013-03-10 05:01:00,
2013-03-10 00:02:00,39.1,37.8,30.29,North,4,0.0,0.0,95,0.00,CLR,SKC,0.00,0.0,WeatherDisplay:10.37,2013-03-10 05:02:00,
2013-03-10 00:07:00,38.1,36.8,30.29,North,4,0.0,0.0,95,0.00,CLR,SKC,0.00,0.0,WeatherDisplay:10.37,2013-03-10 05:07:00,
2013-03-10 00:12:00,38.0,36.7,30.29,North,4,0.0,0.0,95,0.00,CLR,SKC,0.00,0.0,WeatherDisplay:10.37,2013-03-10 05:12:00,
2013-03-10 00:17:00,38.0,37.0,30.29,North,4,0.0,0.0,96,0.00,CLR,SKC,0.00,0.0,WeatherDisplay:10.37,2013-03-10 05:17:00,
2013-03-10 00:22:00,37.8,37.0,30.30,North,4,0.0,0.0,97,0.00,CLR,SKC,0.00,0.0,WeatherDisplay:10.37,2013-03-10 05:22:00,
2013-03-10 00:27:00,38.1,37.1,30.30,North,4,0.0,0.0,96,0.00,CLR,SKC,0.00,0.0,WeatherDisplay:10.37,2013-03-10 05:27:00,
2013-03-10 00:32:00,38.0,37.0,30.30,North,4,0.0,0.0,96,0.00,CLR,SKC,0.00,0.0,WeatherDisplay:10.37,2013-03-10 05:32:00,
2013-03-10 00:37:00,37.6,36.6,30.30,North,4,0.0,0.0,96,0.00,CLR,SKC,0.00,0.0,WeatherDisplay:10.37,2013-03-10 05:37:00,
2013-03-10 00:42:00,37.1,36.1,30.30,North,4,0.0,0.0,96,0.00,CLR,SKC,0.00,0.0,WeatherDisplay:10.37,2013-03-10 05:42:00,
2013-03-10 00:47:00,37.1,36.1,30.31,North,4,0.0,0.0,96,0.00,CLR,SKC,0.00,0.0,WeatherDisplay:10.37,2013-03-10 05:47:00,
2013-03-10 00:52:00,36.6,35.6,30.31,North,4,0.0,0.0,96,0.00,CLR,SKC,0.00,0.0,WeatherDisplay:10.37,2013-03-10 05:52:00,
2013-03-10 00:57:00,36.3,35.3,30.31,North,4,0.0,0.0,96,0.00,CLR,SKC,0.00,0.0,WeatherDisplay:10.37,2013-03-10 05:57:00,
2013-03-10 01:02:00,36.0,35.0,30.30,North,4,0.0,0.0,96,0.00,CLR,SKC,0.00,0.0,WeatherDisplay:10.37,2013-03-10 06:02:00,
2013-03-10 01:07:00,35.3,34.5,30.31,North,4,0.0,0.0,97,0.00,CLR,SKC,0.00,0.0,WeatherDisplay:10.37,2013-03-10 06:07:00,
2013-03-10 01:12:00,35.4,34.6,30.31,North,4,0.0,0.0,97,0.00,CLR,SKC,0.00,0.0,WeatherDisplay:10.37,2013-03-10 06:12:00,
2013-03-10 01:17:00,35.4,34.6,30.31,North,4,0.0,0.0,97,0.00,CLR,SKC,0.00,0.0,WeatherDisplay:10.37,2013-03-10 06:17:00,
2013-03-10 01:22:00,35.1,34.3,30.31,North,4,0.0,0.0,97,0.00,CLR,SKC,0.00,0.0,WeatherDisplay:10.37,2013-03-10 06:22:00,
2013-03-10 01:27:00,35.1,34.3,30.31,North,4,0.0,0.0,97,0.00,CLR,SKC,0.00,0.0,WeatherDisplay:10.37,2013-03-10 06:27:00,
2013-03-10 01:32:00,35.2,34.4,30.31,North,4,0.0,0.0,97,0.00,CLR,SKC,0.00,0.0,WeatherDisplay:10.37,2013-03-10 06:32:00,
2013-03-10 01:37:00,35.3,34.5,30.31,North,4,0.0,0.0,97,0.00,CLR,SKC,0.00,0.0,WeatherDisplay:10.37,2013-03-10 06:37:00,
2013-03-10 01:42:00,35.1,34.3,30.30,North,4,0.0,0.0,97,0.00,CLR,SKC,0.00,0.0,WeatherDisplay:10.37,2013-03-10 06:42:00,
2013-03-10 01:47:00,34.9,34.4,30.30,North,4,0.0,0.0,98,0.00,CLR,SKC,0.00,0.0,WeatherDisplay:10.37,2013-03-10 06:47:00,
2013-03-10 01:52:00,35.3,34.8,30.30,North,4,0.0,0.0,98,0.00,CLR,SKC,0.00,0.0,WeatherDisplay:10.37,2013-03-10 06:52:00,
2013-03-10 01:57:00,35.3,34.5,30.30,North,4,0.0,0.0,97,0.00,CLR,SKC,0.00,0.0,WeatherDisplay:10.37,2013-03-10 06:57:00,
2013-03-10 01:59:00,34.9,34.1,30.30,North,4,0.0,0.0,97,0.00,CLR,SKC,0.00,0.0,WeatherDisplay:10.37,2013-03-10 06:59:00,
2013-03-10 03:04:00,35.1,34.3,30.30,North,4,0.0,0.0,97,0.00,CLR,SKC,0.00,0.0,WeatherDisplay:10.37,2013-03-10 07:04:00,
2013-03-10 03:09:00,35.0,34.2,30.30,North,4,0.0,0.0,97,0.00,CLR,SKC,0.00,0.0,WeatherDisplay:10.37,2013-03-10 07:09:00,
2013-03-10 03:14:00,34.2,33.4,30.30,North,4,0.0,0.0,97,0.00,CLR,SKC,0.00,0.0,WeatherDisplay:10.37,2013-03-10 07:14:00,
2013-03-10 03:19:00,34.3,33.8,30.29,North,4,0.0,0.0,98,0.00,CLR,SKC,0.00,0.0,WeatherDisplay:10.37,2013-03-10 07:19:00,
2013-03-10 03:24:00,34.4,33.9,30.29,North,4,0.0,0.0,98,0.00,CLR,SKC,0.00,0.0,WeatherDisplay:10.37,2013-03-10 07:24:00,
2013-03-10 03:29:00,34.3,33.8,30.29,North,4,0.0,0.0,98,0.00,CLR,SKC,0.00,0.0,WeatherDisplay:10.37,2013-03-10 07:29:00,
2013-03-10 03:34:00,34.5,34.0,30.29,North,4,0.0,0.0,98,0.00,CLR,SKC,0.00,0.0,WeatherDisplay:10.37,2013-03-10 07:34:00,
2013-03-10 03:39:00,34.3,33.8,30.28,North,4,0.0,0.0,98,0.00,CLR,SKC,0.00,0.0,WeatherDisplay:10.37,2013-03-10 07:39:00,
2013-03-10 03:44:00,34.0,33.5,30.28,North,4,0.0,0.0,98,0.00,CLR,SKC,0.00,0.0,WeatherDisplay:10.37,2013-03-10 07:44:00,
2013-03-10 03:49:00,33.8,33.3,30.28,North,4,0.0,0.0,98,0.00,CLR,SKC,0.00,0.0,WeatherDisplay:10.37,2013-03-10 07:49:00,
2013-03-10 03:54:00,33.9,33.4,30.28,North,4,0.0,0.0,98,0.00,CLR,SKC,0.00,0.0,WeatherDisplay:10.37,2013-03-10 07:54:00,
2013-03-10 03:59:00,33.6,33.1,30.28,North,4,0.0,0.0,98,0.00,CLR,SKC,0.00,0.0,WeatherDisplay:10.37,2013-03-10 07:59:00,
2013-03-10 04:04:00,33.4,32.9,30.27,North,4,0.0,0.0,98,0.00,CLR,SKC,0.00,0.0,WeatherDisplay:10.37,2013-03-10 08:04:00,
2013-03-10 04:09:00,33.2,32.7,30.27,North,4,0.0,0.0,98,0.00,CLR,SKC,0.00,0.0,WeatherDisplay:10.37,2013-03-10 08:09:00,
2013-03-10 04:14:00,33.3,32.8,30.27,North,4,0.0,0.0,98,0.00,CLR,SKC,0.00,0.0,WeatherDisplay:10.37,2013-03-10 08:14:00,
2013-03-10 04:19:00,33.1,32.6,30.27,North,4,0.0,0.0,98,0.00,CLR,SKC,0.00,0.0,WeatherDisplay:10.37,2013-03-10 08:19:00,
2013-03-10 04:24:00,33.3,32.8,30.27,North,4,0.0,0.0,98,0.00,CLR,SKC,0.00,0.0,WeatherDisplay:10.37,2013-03-10 08:24:00,
2013-03-10 04:29:00,33.1,32.6,30.27,North,4,0.0,0.0,98,0.00,CLR,SKC,0.00,0.0,WeatherDisplay:10.37,2013-03-10 08:29:00,
2013-03-10 04:34:00,33.0,32.5,30.27,North,4,0.0,0.0,98,0.00,CLR,SKC,0.00,0.0,WeatherDisplay:10.37,2013-03-10 08:34:00,
2013-03-10 04:39:00,32.9,32.4,30.27,North,4,0.0,0.0,98,0.00,CLR,SKC,0.00,0.0,WeatherDisplay:10.37,2013-03-10 08:39:00,
2013-03-10 04:44:00,32.9,32.4,30.27,North,4,0.0,0.0,98,0.00,CLR,SKC,0.00,0.0,WeatherDisplay:10.37,2013-03-10 08:44:00,
2013-03-10 04:49:00,33.5,33.0,30.27,SE,130,1.2,1.2,98,0.00,CLR,SKC,0.00,0.0,WeatherDisplay:10.37,2013-03-10 08:49:00,
2013-03-10 04:54:00,33.0,32.5,30.27,ENE,62,2.3,2.3,98,0.00,CLR,SKC,0.00,0.0,WeatherDisplay:10.37,2013-03-10 08:54:00,
2013-03-10 04:59:00,33.3,33.0,30.27,ENE,62,0.0,0.0,99,0.00,CLR,SKC,0.00,0.0,WeatherDisplay:10.37,2013-03-10 08:59:00,
2013-03-10 05:04:00,33.0,32.8,30.28,ENE,62,0.0,0.0,99,0.00,CLR,SKC,0.00,0.0,WeatherDisplay:10.37,2013-03-10 09:04:00,
2013-03-10 05:09:00,33.3,32.8,30.28,ENE,62,0.0,0.0,98,0.00,CLR,SKC,0.00,0.0,WeatherDisplay:10.37,2013-03-10 09:09:00,
2013-03-10 05:14:00,33.4,32.9,30.28,ENE,62,0.0,0.0,98,0.00,CLR,SKC,0.00,0.0,WeatherDisplay:10.37,2013-03-10 09:14:00,
2013-03-10 05:19:00,33.1,32.6,30.28,ENE,62,0.0,0.0,98,0.00,CLR,SKC,0.00,0.0,WeatherDisplay:10.37,2013-03-10 09:19:00,
2013-03-10 05:24:00,33.4,32.9,30.29,ENE,62,0.0,0.0,98,0.00,CLR,SKC,0.00,0.0,WeatherDisplay:10.37,2013-03-10 09:24:00,
2013-03-10 05:29:00,33.0,32.5,30.29,ENE,62,0.0,0.0,98,0.00,CLR,SKC,0.00,0.0,WeatherDisplay:10.37,2013-03-10 09:29:00,
2013-03-10 05:34:00,33.1,32.9,30.29,ENE,62,0.0,0.0,99,0.00,CLR,SKC,0.00,0.0,WeatherDisplay:10.37,2013-03-10 09:34:00,
2013-03-10 05:39:00,33.0,32.8,30.29,ENE,62,0.0,0.0,99,0.00,CLR,SKC,0.00,0.0,WeatherDisplay:10.37,2013-03-10 09:39:00,
2013-03-10 05:44:00,33.1,32.6,30.29,ENE,62,0.0,0.0,98,0.00,CLR,SKC,0.00,0.0,WeatherDisplay:10.37,2013-03-10 09:44:00,
2013-03-10 05:49:00,32.8,32.3,30.29,ENE,62,0.0,0.0,98,0.00,CLR,SKC,0.00,0.0,WeatherDisplay:10.37,2013-03-10 09:49:00,
2013-03-10 05:54:00,32.7,32.2,30.29,ENE,62,0.0,0.0,98,0.00,CLR,SKC,0.00,0.0,WeatherDisplay:10.37,2013-03-10 09:54:00,
2013-03-10 05:59:00,32.3,31.8,30.29,ENE,62,0.0,0.0,98,0.00,CLR,SKC,0.00,0.0,WeatherDisplay:10.37,2013-03-10 09:59:00,
2013-03-10 06:04:00,32.3,31.8,30.29,ENE,62,0.0,0.0,98,0.00,CLR,SKC,0.00,0.0,WeatherDisplay:10.37,2013-03-10 10:04:00,
2013-03-10 06:09:00,32.0,31.5,30.29,ENE,62,0.0,0.0,98,0.00,CLR,SKC,0.00,0.0,WeatherDisplay:10.37,2013-03-10 10:09:00,
2013-03-10 06:15:00,31.9,31.4,30.29,ENE,62,0.0,0.0,98,0.00,CLR,SKC,0.00,0.0,WeatherDisplay:10.37,2013-03-10 10:15:00,
2013-03-10 06:20:00,31.9,31.4,30.29,ENE,62,0.0,0.0,98,0.00,CLR,SKC,0.00,0.0,WeatherDisplay:10.37,2013-03-10 10:20:00,
2013-03-10 06:25:00,31.8,31.3,30.29,ENE,62,0.0,0.0,98,0.00,CLR,SKC,0.00,0.0,WeatherDisplay:10.37,2013-03-10 10:25:00,
2013-03-10 06:30:00,31.8,31.3,30.29,ENE,62,0.0,0.0,98,0.00,CLR,SKC,0.00,0.0,WeatherDisplay:10.37,2013-03-10 10:30:00,
2013-03-10 06:35:00,31.7,31.2,30.29,ENE,62,0.0,0.0,98,0.00,CLR,SKC,0.00,0.0,WeatherDisplay:10.37,2013-03-10 10:35:00,
2013-03-10 06:40:00,31.7,31.2,30.29,ENE,62,0.0,0.0,98,0.00,CLR,SKC,0.00,0.0,WeatherDisplay:10.37,2013-03-10 10:40:00,
2013-03-10 06:45:00,31.5,31.3,30.29,ENE,62,0.0,0.0,99,0.00,CLR,SKC,0.00,0.0,WeatherDisplay:10.37,2013-03-10 10:45:00,
2013-03-10 06:50:00,31.9,31.7,30.29,ENE,62,0.0,0.0,99,0.00,CLR,SKC,0.00,0.0,WeatherDisplay:10.37,2013-03-10 10:50:00,
2013-03-10 06:55:00,31.9,31.7,30.29,ENE,62,0.0,0.0,99,0.00,CLR,SKC,0.00,0.0,WeatherDisplay:10.37,2013-03-10 10:55:00,
2013-03-10 07:00:00,31.8,31.6,30.29,ENE,62,0.0,0.0,99,0.00,CLR,SKC,0.00,0.0,WeatherDisplay:10.37,2013-03-10 11:00:00,
2013-03-10 07:05:00,32.0,31.8,30.29,ENE,62,0.0,0.0,99,0.00,CLR,SKC,0.00,0.0,WeatherDisplay:10.37,2013-03-10 11:05:00,
2013-03-10 07:10:00,31.9,31.7,30.29,ENE,62,0.0,0.0,99,0.00,CLR,SKC,0.00,0.0,WeatherDisplay:10.37,2013-03-10 11:10:00,
2013-03-10 07:15:00,31.8,31.6,30.29,ENE,62,0.0,0.0,99,0.00,CLR,SKC,0.00,0.0,WeatherDisplay:10.37,2013-03-10 11:15:00,
2013-03-10 07:20:00,31.9,31.7,30.29,ENE,62,0.0,0.0,99,0.00,CLR,SKC,0.00,0.0,WeatherDisplay:10.37,2013-03-10 11:20:00,
2013-03-10 07:25:00,31.6,31.1,30.30,ENE,62,0.0,0.0,98,0.00,CLR,SKC,0.00,0.0,WeatherDisplay:10.37,2013-03-10 11:25:00,
2013-03-10 07:30:00,31.3,30.8,30.30,ENE,62,0.0,0.0,98,0.00,CLR,SKC,0.00,0.0,WeatherDisplay:10.37,2013-03-10 11:30:00,
2013-03-10 07:35:00,31.3,30.8,30.30,ENE,62,0.0,0.0,98,0.00,CLR,SKC,0.00,0.0,WeatherDisplay:10.37,2013-03-10 11:35:00,
2013-03-10 07:41:00,31.1,30.6,30.30,ENE,62,0.0,0.0,98,0.00,CLR,SKC,0.00,0.0,WeatherDisplay:10.37,2013-03-10 11:41:00,
2013-03-10 07:46:00,31.4,31.2,30.30,ENE,62,0.0,0.0,99,0.00,CLR,SKC,0.00,0.0,WeatherDisplay:10.37,2013-03-10 11:46:00,
2013-03-10 07:51:00,31.5,31.3,30.31,ENE,62,0.0,0.0,99,0.00,CLR,SKC,0.00,0.0,WeatherDisplay:10.37,2013-03-10 11:51:00,
2013-03-10 07:56:00,31.5,31.3,30.31,ENE,62,0.0,0.0,99,0.00,CLR,SKC,0.00,0.0,WeatherDisplay:10.37,2013-03-10 11:56:00,
2013-03-10 08:01:00,32.1,31.9,30.31,ENE,62,0.0,0.0,99,0.00,CLR,SKC,0.00,0.0,WeatherDisplay:10.37,2013-03-10 12:01:00,
2013-03-10 08:06:00,32.3,32.1,30.31,ENE,62,0.0,0.0,99,0.00,CLR,SKC,0.00,0.0,WeatherDisplay:10.37,2013-03-10 12:06:00,
2013-03-10 08:11:00,32.4,32.2,30.31,ENE,62,0.0,0.0,99,0.00,CLR,SKC,0.00,0.0,WeatherDisplay:10.37,2013-03-10 12:11:00,
2013-03-10 08:16:00,32.9,32.7,30.31,ENE,62,0.0,0.0,99,0.00,CLR,SKC,0.00,0.0,WeatherDisplay:10.37,2013-03-10 12:16:00,
2013-03-10 08:21:00,33.2,33.0,30.31,ENE,62,0.0,0.0,99,0.00,CLR,SKC,0.00,0.0,WeatherDisplay:10.37,2013-03-10 12:21:00,
2013-03-10 08:26:00,33.4,33.1,30.31,ENE,62,0.0,0.0,99,0.00,CLR,SKC,0.00,0.0,WeatherDisplay:10.37,2013-03-10 12:26:00,
2013-03-10 08:31:00,33.9,33.6,30.31,ENE,62,0.0,0.0,99,0.00,CLR,SKC,0.00,0.0,WeatherDisplay:10.37,2013-03-10 12:31:00,
2013-03-10 08:36:00,34.2,33.9,30.31,ENE,62,0.0,0.0,99,0.00,CLR,SKC,0.00,0.0,WeatherDisplay:10.37,2013-03-10 12:36:00,
2013-03-10 08:41:00,34.8,34.5,30.31,ENE,62,0.0,0.0,99,0.00,CLR,SKC,0.00,0.0,WeatherDisplay:10.37,2013-03-10 12:41:00,
2013-03-10 08:46:00,35.5,35.2,30.31,ENE,62,0.0,0.0,99,0.00,CLR,SKC,0.00,0.0,WeatherDisplay:10.37,2013-03-10 12:46:00,
2013-03-10 08:51:00,36.6,36.1,30.31,ENE,62,0.0,0.0,98,0.00,CLR,SKC,0.00,0.0,WeatherDisplay:10.37,2013-03-10 12:51:00,
2013-03-10 08:56:00,37.2,36.7,30.31,ENE,62,0.0,0.0,98,0.00,CLR,SKC,0.00,0.0,WeatherDisplay:10.37,2013-03-10 12:56:00,
2013-03-10 09:01:00,37.4,36.6,30.31,ENE,62,0.0,0.0,97,0.00,OVC,SKC,0.00,0.0,WeatherDisplay:10.37,2013-03-10 13:01:00,
2013-03-10 09:06:00,38.8,38.0,30.31,ENE,62,0.0,0.0,97,0.00,OVC,SKC,0.00,0.0,WeatherDisplay:10.37,2013-03-10 13:06:00,
2013-03-10 09:11:00,39.6,38.3,30.31,ENE,62,0.0,0.0,95,0.00,OVC,SKC,0.00,0.0,WeatherDisplay:10.37,2013-03-10 13:11:00,
2013-03-10 09:16:00,40.5,39.2,30.31,ENE,62,0.0,0.0,95,0.00,OVC,SKC,0.00,0.0,WeatherDisplay:10.37,2013-03-10 13:16:00,
2013-03-10 09:21:00,41.6,38.6,30.31,ENE,62,0.0,0.0,89,0.00,OVC,SKC,0.00,0.0,WeatherDisplay:10.37,2013-03-10 13:21:00,
2013-03-10 09:26:00,42.7,39.4,30.31,ENE,62,0.0,0.0,88,0.00,OVC,SKC,0.00,0.0,WeatherDisplay:10.37,2013-03-10 13:26:00,
2013-03-10 09:31:00,43.2,39.6,30.31,ENE,62,0.0,0.0,87,0.00,OVC,SKC,0.00,0.0,WeatherDisplay:10.37,2013-03-10 13:31:00,
2013-03-10 09:36:00,44.2,40.3,30.32,ENE,62,0.0,0.0,86,0.00,OVC,SKC,0.00,0.0,WeatherDisplay:10.37,2013-03-10 13:36:00,
2013-03-10 09:41:00,44.7,40.5,30.32,ENE,62,0.0,0.0,85,0.00,OVC,SKC,0.00,0.0,WeatherDisplay:10.37,2013-03-10 13:41:00,
2013-03-10 09:46:00,44.8,39.6,30.32,ENE,62,0.0,0.0,82,0.00,OVC,SKC,0.00,0.0,WeatherDisplay:10.37,2013-03-10 13:46:00,
2013-03-10 09:51:00,46.2,40.4,30.32,ENE,62,0.0,0.0,80,0.00,OVC,SKC,0.00,0.0,WeatherDisplay:10.37,2013-03-10 13:51:00,
2013-03-10 09:56:00,47.1,39.6,30.32,WSW,239,2.4,2.4,75,0.00,OVC,SKC,0.00,0.0,WeatherDisplay:10.37,2013-03-10 13:56:00,
2013-03-10 10:01:00,48.0,39.0,30.32,WSW,258,3.5,3.5,71,0.00,OVC,SKC,0.00,0.0,WeatherDisplay:10.37,2013-03-10 14:01:00,
2013-03-10 10:06:00,48.8,39.4,30.32,SW,223,1.9,1.9,70,0.00,OVC,SKC,0.00,0.0,WeatherDisplay:10.37,2013-03-10 14:06:00,
2013-03-10 10:11:00,49.4,38.1,30.32,SSE,164,0.0,0.0,65,0.00,OVC,SKC,0.00,0.0,WeatherDisplay:10.37,2013-03-10 14:11:00,
2013-03-10 10:16:00,50.0,39.5,30.32,West,281,4.6,4.6,67,0.00,OVC,SKC,0.00,0.0,WeatherDisplay:10.37,2013-03-10 14:16:00,
2013-03-10 10:21:00,50.7,39.4,30.32,ESE,109,2.1,2.1,65,0.00,OVC,SKC,0.00,0.0,WeatherDisplay:10.37,2013-03-10 14:21:00,
2013-03-10 10:26:00,50.7,38.6,30.32,SW,236,3.5,3.5,63,0.00,OVC,SKC,0.00,0.0,WeatherDisplay:10.37,2013-03-10 14:26:00,
2013-03-10 10:31:00,51.2,37.8,30.32,West,263,3.5,3.5,60,0.00,OVC,SKC,0.00,0.0,WeatherDisplay:10.37,2013-03-10 14:31:00,
2013-03-10 10:36:00,51.4,38.0,30.32,SW,232,4.6,4.6,60,0.00,OVC,SKC,0.00,0.0,WeatherDisplay:10.37,2013-03-10 14:36:00,
2013-03-10 10:41:00,52.0,38.5,30.32,SSW,199,4.1,4.1,60,0.00,OVC,SKC,0.00,0.0,WeatherDisplay:10.37,2013-03-10 14:41:00,
2013-03-10 10:46:00,51.9,38.4,30.32,West,260,5.8,5.8,60,0.00,OVC,SKC,0.00,0.0,WeatherDisplay:10.37,2013-03-10 14:46:00,
2013-03-10 10:51:00,52.3,38.0,30.32,West,280,3.7,3.7,58,0.00,OVC,SKC,0.00,0.0,WeatherDisplay:10.37,2013-03-10 14:51:00,
2013-03-10 10:56:00,53.0,39.0,30.32,SW,216,5.8,5.8,59,0.00,OVC,SKC,0.00,0.0,WeatherDisplay:10.37,2013-03-10 14:56:00,
2013-03-10 11:01:00,53.3,39.3,30.32,SW,233,4.6,4.6,59,0.00,OVC,SKC,0.00,0.0,WeatherDisplay:10.37,2013-03-10 15:01:00,
2013-03-10 11:06:00,54.0,39.1,30.32,WSW,256,4.6,4.6,57,0.00,OVC,SKC,0.00,0.0,WeatherDisplay:10.37,2013-03-10 15:06:00,
2013-03-10 11:11:00,54.1,37.8,30.32,South,181,6.9,6.9,54,0.00,OVC,SKC,0.00,0.0,WeatherDisplay:10.37,2013-03-10 15:11:00,
2013-03-10 11:16:00,53.7,37.4,30.32,WSW,237,6.9,6.9,54,0.00,OVC,SKC,0.00,0.0,WeatherDisplay:10.37,2013-03-10 15:16:00,
2013-03-10 11:21:00,54.4,37.1,30.32,SE,133,4.6,4.6,52,0.00,OVC,SKC,0.00,0.0,WeatherDisplay:10.37,2013-03-10 15:21:00,
2013-03-10 11:26:00,54.7,38.4,30.32,West,280,2.3,2.3,54,0.00,OVC,SKC,0.00,0.0,WeatherDisplay:10.37,2013-03-10 15:26:00,
2013-03-10 11:31:00,55.3,37.0,30.32,West,261,4.6,4.6,50,0.00,OVC,SKC,0.00,0.0,WeatherDisplay:10.37,2013-03-10 15:31:00,
2013-03-10 11:36:00,55.7,34.7,30.32,SSW,210,6.3,6.3,45,0.00,OVC,SKC,0.00,0.0,WeatherDisplay:10.37,2013-03-10 15:36:00,
2013-03-10 11:41:00,55.8,35.3,30.32,SSW,206,3.6,3.6,46,0.00,OVC,SKC,0.00,0.0,WeatherDisplay:10.37,2013-03-10 15:41:00,
2013-03-10 11:46:00,56.6,37.1,30.32,WSW,258,3.5,3.5,48,0.00,OVC,SKC,0.00,0.0,WeatherDisplay:10.37,2013-03-10 15:46:00,
2013-03-10 11:51:00,57.1,35.9,30.32,SW,219,6.9,6.9,45,0.00,OVC,SKC,0.00,0.0,WeatherDisplay:10.37,2013-03-10 15:51:00,
2013-03-10 11:56:00,57.7,36.5,30.32,SW,217,4.6,4.6,45,0.00,OVC,SKC,0.00,0.0,WeatherDisplay:10.37,2013-03-10 15:56:00,
2013-03-10 12:01:00,57.8,35.4,30.31,South,191,9.2,9.2,43,0.00,OVC,SKC,0.00,0.0,WeatherDisplay:10.37,2013-03-10 16:01:00,
2013-03-10 12:07:00,58.2,35.8,30.31,West,270,6.9,6.9,43,0.00,OVC,SKC,0.00,0.0,WeatherDisplay:10.37,2013-03-10 16:07:00,
2013-03-10 12:12:00,58.1,35.7,30.31,SW,232,8.1,8.1,43,0.00,OVC,SKC,0.00,0.0,WeatherDisplay:10.37,2013-03-10 16:12:00,
2013-03-10 12:18:00,58.6,35.0,30.30,SSW,213,5.8,5.8,41,0.00,OVC,SKC,0.00,0.0,WeatherDisplay:10.37,2013-03-10 16:18:00,
2013-03-10 12:23:00,58.2,34.6,30.30,SW,216,9.2,9.2,41,0.00,OVC,SKC,0.00,0.0,WeatherDisplay:10.37,2013-03-10 16:23:00,
2013-03-10 12:28:00,58.7,34.4,30.30,SW,227,8.1,8.1,40,0.00,OVC,SKC,0.00,0.0,WeatherDisplay:10.37,2013-03-10 16:28:00,
2013-03-10 12:33:00,59.3,35.6,30.30,WNW,301,4.6,4.6,41,0.00,OVC,SKC,0.00,0.0,WeatherDisplay:10.37,2013-03-10 16:33:00,
2013-03-10 12:38:00,59.5,34.5,30.30,SW,215,3.5,3.5,39,0.00,OVC,SKC,0.00,0.0,WeatherDisplay:10.37,2013-03-10 16:38:00,
2013-03-10 12:43:00,60.2,35.1,30.29,SSW,195,6.9,6.9,39,0.00,OVC,SKC,0.00,0.0,WeatherDisplay:10.37,2013-03-10 16:43:00,
2013-03-10 12:48:00,60.5,35.4,30.29,NNE,17,4.6,4.6,39,0.00,OVC,SKC,0.00,0.0,WeatherDisplay:10.37,2013-03-10 16:48:00,
2013-03-10 12:53:00,61.4,36.2,30.29,WNW,294,5.8,5.8,39,0.00,OVC,SKC,0.00,0.0,WeatherDisplay:10.37,2013-03-10 16:53:00,
2013-03-10 12:58:00,61.3,35.5,30.29,WNW,285,3.5,3.5,38,0.00,OVC,SKC,0.00,0.0,WeatherDisplay:10.37,2013-03-10 16:58:00,
2013-03-10 13:03:00,61.7,33.7,30.28,SSW,198,6.9,6.9,35,0.00,OVC,SKC,0.00,0.0,WeatherDisplay:10.37,2013-03-10 17:03:00,
2013-03-10 13:08:00,62.0,35.4,30.28,West,264,4.6,4.6,37,0.00,OVC,SKC,0.00,0.0,WeatherDisplay:10.37,2013-03-10 17:08:00,
2013-03-10 13:13:00,61.8,33.8,30.28,West,261,4.6,4.6,35,0.00,OVC,SKC,0.00,0.0,WeatherDisplay:10.37,2013-03-10 17:13:00,
2013-03-10 13:18:00,61.8,33.8,30.27,SSW,196,5.8,5.8,35,0.00,OVC,SKC,0.00,0.0,WeatherDisplay:10.37,2013-03-10 17:18:00,
2013-03-10 13:23:00,61.9,31.7,30.27,South,178,6.6,6.6,32,0.00,OVC,SKC,0.00,0.0,WeatherDisplay:10.37,2013-03-10 17:23:00,
2013-03-10 13:28:00,61.9,33.2,30.27,South,178,6.9,6.9,34,0.00,OVC,SKC,0.00,0.0,WeatherDisplay:10.37,2013-03-10 17:28:00,
2013-03-10 13:33:00,62.4,31.3,30.27,West,275,5.8,5.8,31,0.00,OVC,SKC,0.00,0.0,WeatherDisplay:10.37,2013-03-10 17:33:00,
2013-03-10 13:38:00,62.3,32.0,30.27,South,174,8.1,8.1,32,0.00,OVC,SKC,0.00,0.0,WeatherDisplay:10.37,2013-03-10 17:38:00,
2013-03-10 13:43:00,62.4,32.9,30.26,SSW,210,4.6,4.6,33,0.00,OVC,SKC,0.00,0.0,WeatherDisplay:10.37,2013-03-10 17:43:00,
2013-03-10 13:48:00,62.2,32.0,30.26,SSW,205,6.9,6.9,32,0.00,OVC,SKC,0.00,0.0,WeatherDisplay:10.37,2013-03-10 17:48:00,
2013-03-10 13:53:00,62.5,30.6,30.26,SSE,155,5.8,5.8,30,0.00,OVC,SKC,0.00,0.0,WeatherDisplay:10.37,2013-03-10 17:53:00,
2013-03-10 13:58:00,62.5,33.7,30.26,WSW,250,6.2,6.2,34,0.00,OVC,SKC,0.00,0.0,WeatherDisplay:10.37,2013-03-10 17:58:00,
2013-03-10 14:03:00,62.8,33.2,30.26,SW,230,2.3,2.3,33,0.00,OVC,SKC,0.00,0.0,WeatherDisplay:10.37,2013-03-10 18:03:00,
2013-03-10 14:08:00,63.3,30.5,30.25,SW,219,9.2,9.2,29,0.00,OVC,SKC,0.00,0.0,WeatherDisplay:10.37,2013-03-10 18:08:00,
2013-03-10 14:13:00,63.1,30.3,30.25,South,191,10.4,10.4,29,0.00,OVC,SKC,0.00,0.0,WeatherDisplay:10.37,2013-03-10 18:13:00,
2013-03-10 14:18:00,63.3,28.7,30.25,ESE,123,4.6,4.6,27,0.00,OVC,SKC,0.00,0.0,WeatherDisplay:10.37,2013-03-10 18:18:00,
2013-03-10 14:23:00,63.8,31.7,30.24,West,281,8.1,8.1,30,0.00,OVC,SKC,0.00,0.0,WeatherDisplay:10.37,2013-03-10 18:23:00,
2013-03-10 14:28:00,64.3,32.2,30.24,SW,234,5.8,5.8,30,0.00,OVC,SKC,0.00,0.0,WeatherDisplay:10.37,2013-03-10 18:28:00,
2013-03-10 14:33:00,64.6,31.6,30.24,SSW,193,3.5,3.5,29,0.00,OVC,SKC,0.00,0.0,WeatherDisplay:10.37,2013-03-10 18:33:00,
2013-03-10 14:38:00,64.4,31.4,30.24,West,280,4.6,4.6,29,0.00,OVC,SKC,0.00,0.0,WeatherDisplay:10.37,2013-03-10 18:38:00,
2013-03-10 14:43:00,64.5,32.4,30.23,WSW,248,4.6,4.6,30,0.00,OVC,SKC,0.00,0.0,WeatherDisplay:10.37,2013-03-10 18:43:00,
2013-03-10 14:48:00,64.9,32.7,30.24,West,275,5.8,5.8,30,0.00,OVC,SKC,0.00,0.0,WeatherDisplay:10.37,2013-03-10 18:48:00,
2013-03-10 14:53:00,65.3,32.2,30.24,East,89,3.5,3.5,29,0.00,OVC,SKC,0.00,0.0,WeatherDisplay:10.37,2013-03-10 18:53:00,
2013-03-10 14:58:00,65.4,33.1,30.25,WNW,292,4.6,4.6,30,0.00,OVC,SKC,0.00,0.0,WeatherDisplay:10.37,2013-03-10 18:58:00,
2013-03-10 15:03:00,65.1,32.9,30.24,NW,309,6.9,6.9,30,0.00,OVC,SKC,0.00,0.0,WeatherDisplay:10.37,2013-03-10 19:03:00,
2013-03-10 15:09:00,65.4,32.3,30.25,NW,325,5.8,5.8,29,0.00,OVC,SKC,0.00,0.0,WeatherDisplay:10.37,2013-03-10 19:09:00,
2013-03-10 15:14:00,66.0,31.9,30.25,WNW,287,9.2,9.2,28,0.00,OVC,SKC,0.00,0.0,WeatherDisplay:10.37,2013-03-10 19:14:00,
2013-03-10 15:19:00,65.4,31.4,30.25,West,274,6.9,6.9,28,0.00,OVC,SKC,0.00,0.0,WeatherDisplay:10.37,2013-03-10 19:19:00,
2013-03-10 15:24:00,65.6,31.6,30.25,SSE,155,5.8,5.8,28,0.00,OVC,SKC,0.00,0.0,WeatherDisplay:10.37,2013-03-10 19:24:00,
2013-03-10 15:29:00,65.7,33.4,30.25,West,265,5.3,5.3,30,0.00,OVC,SKC,0.00,0.0,WeatherDisplay:10.37,2013-03-10 19:29:00,
2013-03-10 15:34:00,66.0,33.7,30.25,WSW,247,4.6,4.6,30,0.00,OVC,SKC,0.00,0.0,WeatherDisplay:10.37,2013-03-10 19:34:00,
2013-03-10 15:39:00,66.5,32.4,30.25,SW,224,5.5,5.5,28,0.00,OVC,SKC,0.00,0.0,WeatherDisplay:10.37,2013-03-10 19:39:00,
2013-03-10 15:44:00,66.6,32.5,30.25,WSW,248,6.9,6.9,28,0.00,OVC,SKC,0.00,0.0,WeatherDisplay:10.37,2013-03-10 19:44:00,
2013-03-10 15:49:00,67.0,33.7,30.25,West,274,5.5,5.5,29,0.00,OVC,SKC,0.00,0.0,WeatherDisplay:10.37,2013-03-10 19:49:00,
2013-03-10 15:54:00,66.7,30.7,30.25,SW,232,5.8,5.8,26,0.00,OVC,SKC,0.00,0.0,WeatherDisplay:10.37,2013-03-10 19:54:00,
2013-03-10 15:59:00,67.2,31.1,30.25,WSW,258,4.4,4.4,26,0.00,OVC,SKC,0.00,0.0,WeatherDisplay:10.37,2013-03-10 19:59:00,
2013-03-10 16:04:00,67.4,29.3,30.25,SW,216,5.8,5.8,24,0.00,OVC,SKC,0.00,0.0,WeatherDisplay:10.37,2013-03-10 20:04:00,
2013-03-10 16:10:00,67.6,29.5,30.24,South,184,0.0,0.1,24,0.00,OVC,SKC,0.00,0.0,WeatherDisplay:10.37,2013-03-10 20:10:00,
2013-03-10 16:15:00,67.5,33.2,30.24,West,267,6.9,6.9,28,0.00,OVC,SKC,0.00,0.0,WeatherDisplay:10.37,2013-03-10 20:15:00,
2013-03-10 16:21:00,67.5,31.4,30.24,West,260,1.1,1.2,26,0.00,OVC,SKC,0.00,0.0,WeatherDisplay:10.37,2013-03-10 20:21:00,
2013-03-10 16:27:00,67.7,31.6,30.24,WNW,289,5.8,5.8,26,0.00,OVC,SKC,0.00,0.0,WeatherDisplay:10.37,2013-03-10 20:27:00,
2013-03-10 16:33:00,67.4,33.1,30.25,West,263,6.9,6.9,28,0.00,OVC,SKC,0.00,0.0,WeatherDisplay:10.37,2013-03-10 20:33:00,
2013-03-10 16:38:00,66.3,29.4,30.25,NNE,20,5.8,5.8,25,0.00,OVC,SKC,0.00,0.0,WeatherDisplay:10.37,2013-03-10 20:38:00,
2013-03-10 16:43:00,66.7,30.7,30.24,SW,232,5.8,5.8,26,0.00,OVC,SKC,0.00,0.0,WeatherDisplay:10.37,2013-03-10 20:43:00,
2013-03-10 16:49:00,66.8,29.8,30.24,WSW,248,8.1,8.1,25,0.00,OVC,SKC,0.00,0.0,WeatherDisplay:10.37,2013-03-10 20:49:00,
2013-03-10 16:54:00,67.2,30.2,30.24,SSW,202,3.5,3.5,25,0.00,OVC,SKC,0.00,0.0,WeatherDisplay:10.37,2013-03-10 20:54:00,
2013-03-10 16:59:00,67.1,31.0,30.24,WNW,302,10.4,10.4,26,0.00,OVC,SKC,0.00,0.0,WeatherDisplay:10.37,2013-03-10 20:59:00,
2013-03-10 17:04:00,67.7,32.5,30.24,WNW,288,5.4,5.4,27,0.00,OVC,SKC,0.00,0.0,WeatherDisplay:10.37,2013-03-10 21:04:00,
2013-03-10 17:09:00,67.5,31.4,30.24,West,268,4.6,4.6,26,0.00,OVC,SKC,0.00,0.0,WeatherDisplay:10.37,2013-03-10 21:09:00,
2013-03-10 17:14:00,67.4,29.3,30.23,West,277,7.1,7.1,24,0.00,OVC,SKC,0.00,0.0,WeatherDisplay:10.37,2013-03-10 21:14:00,
2013-03-10 17:19:00,67.7,28.5,30.23,WNW,291,5.8,5.8,23,0.00,OVC,SKC,0.00,0.0,WeatherDisplay:10.37,2013-03-10 21:19:00,
2013-03-10 17:24:00,67.2,30.2,30.23,WSW,243,3.5,3.5,25,0.00,OVC,SKC,0.00,0.0,WeatherDisplay:10.37,2013-03-10 21:24:00,
2013-03-10 17:30:00,67.1,29.1,30.23,WNW,288,8.1,8.1,24,0.00,OVC,SKC,0.00,0.0,WeatherDisplay:10.37,2013-03-10 21:30:00,
2013-03-10 17:35:00,67.0,30.0,30.23,WSW,246,5.8,5.8,25,0.00,OVC,SKC,0.00,0.0,WeatherDisplay:10.37,2013-03-10 21:35:00,
2013-03-10 17:40:00,67.0,31.0,30.23,West,265,4.6,4.6,26,0.00,OVC,SKC,0.00,0.0,WeatherDisplay:10.37,2013-03-10 21:40:00,
2013-03-10 17:45:00,66.8,30.8,30.23,West,263,4.6,4.6,26,0.00,OVC,SKC,0.00,0.0,WeatherDisplay:10.37,2013-03-10 21:45:00,
2013-03-10 17:50:00,66.4,31.4,30.23,West,268,8.1,8.1,27,0.00,OVC,SKC,0.00,0.0,WeatherDisplay:10.37,2013-03-10 21:50:00,
2013-03-10 17:57:00,65.6,31.6,30.23,WNW,282,4.6,4.6,28,0.00,OVC,SKC,0.00,0.0,WeatherDisplay:10.37,2013-03-10 21:57:00,
2013-03-10 18:02:00,65.1,30.3,30.23,WNW,302,4.6,4.6,27,0.00,CLR,SKC,0.00,0.0,WeatherDisplay:10.37,2013-03-10 22:02:00,
2013-03-10 18:08:00,64.9,31.0,30.23,WSW,258,4.8,4.8,28,0.00,CLR,SKC,0.00,0.0,WeatherDisplay:10.37,2013-03-10 22:08:00,
2013-03-10 18:13:00,65.3,30.4,30.23,WSW,239,5.8,5.8,27,0.00,CLR,SKC,0.00,0.0,WeatherDisplay:10.37,2013-03-10 22:13:00,
2013-03-10 18:18:00,65.2,31.2,30.24,West,280,2.3,2.3,28,0.00,CLR,SKC,0.00,0.0,WeatherDisplay:10.37,2013-03-10 22:18:00,
2013-03-10 18:23:00,64.7,31.7,30.24,WNW,302,2.3,2.3,29,0.00,CLR,SKC,0.00,0.0,WeatherDisplay:10.37,2013-03-10 22:23:00,
2013-03-10 18:28:00,65.1,33.7,30.23,WSW,240,1.1,1.1,31,0.00,CLR,SKC,0.00,0.0,WeatherDisplay:10.37,2013-03-10 22:28:00,
2013-03-10 18:33:00,65.4,34.0,30.24,WNW,287,2.3,2.3,31,0.00,CLR,SKC,0.00,0.0,WeatherDisplay:10.37,2013-03-10 22:33:00,
2013-03-10 18:38:00,65.2,33.0,30.24,West,265,2.3,2.3,30,0.00,CLR,SKC,0.00,0.0,WeatherDisplay:10.37,2013-03-10 22:38:00,
2013-03-10 18:43:00,64.7,34.1,30.24,WSW,256,2.3,2.3,32,0.00,CLR,SKC,0.00,0.0,WeatherDisplay:10.37,2013-03-10 22:43:00,
2013-03-10 18:48:00,64.2,35.2,30.24,WSW,256,0.0,0.0,34,0.00,CLR,SKC,0.00,0.0,WeatherDisplay:10.37,2013-03-10 22:48:00,
2013-03-10 18:53:00,63.8,35.6,30.24,WSW,256,0.0,0.0,35,0.00,CLR,SKC,0.00,0.0,WeatherDisplay:10.37,2013-03-10 22:53:00,
2013-03-10 18:58:00,63.3,36.6,30.24,WSW,256,0.0,0.0,37,0.00,CLR,SKC,0.00,0.0,WeatherDisplay:10.37,2013-03-10 22:58:00,
2013-03-10 19:03:00,62.2,36.3,30.24,WSW,256,0.0,0.0,38,0.00,CLR,SKC,0.00,0.0,WeatherDisplay:10.37,2013-03-10 23:03:00,
2013-03-10 19:08:00,61.5,36.9,30.24,WSW,256,0.0,0.0,40,0.00,CLR,SKC,0.00,0.0,WeatherDisplay:10.37,2013-03-10 23:08:00,
2013-03-10 19:13:00,60.4,37.8,30.24,WSW,256,0.0,0.0,43,0.00,CLR,SKC,0.00,0.0,WeatherDisplay:10.37,2013-03-10 23:13:00,
2013-03-10 19:19:00,59.5,38.1,30.24,WSW,256,0.0,0.0,45,0.00,CLR,SKC,0.00,0.0,WeatherDisplay:10.37,2013-03-10 23:19:00,
2013-03-10 19:25:00,58.9,38.7,30.24,WSW,256,0.0,0.0,47,0.00,CLR,SKC,0.00,0.0,WeatherDisplay:10.37,2013-03-10 23:25:00,
2013-03-10 19:30:00,58.3,38.1,30.24,WSW,256,0.0,0.0,47,0.00,CLR,SKC,0.00,0.0,WeatherDisplay:10.37,2013-03-10 23:30:00,
2013-03-10 19:35:00,57.5,38.5,30.25,WSW,256,0.0,0.0,49,0.00,CLR,SKC,0.00,0.0,WeatherDisplay:10.37,2013-03-10 23:35:00,
2013-03-10 19:40:00,57.2,39.2,30.25,WSW,256,0.0,0.0,51,0.00,CLR,SKC,0.00,0.0,WeatherDisplay:10.37,2013-03-10 23:40:00,
2013-03-10 19:46:00,56.7,38.3,30.24,WSW,256,0.0,0.0,50,0.00,CLR,SKC,0.00,0.0,WeatherDisplay:10.37,2013-03-10 23:46:00,
2013-03-10 19:52:00,55.6,38.2,30.24,WSW,243,0.0,0.0,52,0.00,CLR,SKC,0.00,0.0,WeatherDisplay:10.37,2013-03-10 23:52:00,
2013-03-10 19:57:00,55.2,38.8,30.25,WSW,243,0.0,0.0,54,0.00,CLR,SKC,0.00,0.0,WeatherDisplay:10.37,2013-03-10 23:57:00,
2013-03-10 20:02:00,55.0,39.6,30.25,WSW,243,0.0,0.0,56,0.00,CLR,SKC,0.00,0.0,WeatherDisplay:10.37,2013-03-11 00:02:00,
2013-03-10 20:07:00,54.2,39.7,30.25,WSW,243,0.0,0.0,58,0.00,CLR,SKC,0.00,0.0,WeatherDisplay:10.37,2013-03-11 00:07:00,
2013-03-10 20:12:00,54.0,40.0,30.25,WSW,243,0.0,0.0,59,0.00,CLR,SKC,0.00,0.0,WeatherDisplay:10.37,2013-03-11 00:12:00,
2013-03-10 20:17:00,53.4,39.9,30.25,WSW,243,0.0,0.0,60,0.00,CLR,SKC,0.00,0.0,WeatherDisplay:10.37,2013-03-11 00:17:00,
2013-03-10 20:22:00,52.8,38.0,30.25,West,267,0.0,0.0,57,0.00,CLR,SKC,0.00,0.0,WeatherDisplay:10.37,2013-03-11 00:22:00,
2013-03-10 20:28:00,52.2,37.0,30.26,West,265,3.5,3.5,56,0.00,CLR,SKC,0.00,0.0,WeatherDisplay:10.37,2013-03-11 00:28:00,
2013-03-10 20:33:00,52.8,37.1,30.26,WSW,256,2.3,2.3,55,0.00,CLR,SKC,0.00,0.0,WeatherDisplay:10.37,2013-03-11 00:33:00,
2013-03-10 20:38:00,53.1,37.8,30.26,WSW,256,0.0,0.0,56,0.00,CLR,SKC,0.00,0.0,WeatherDisplay:10.37,2013-03-11 00:38:00,
2013-03-10 20:43:00,53.1,37.8,30.26,WSW,241,2.3,0.0,56,0.00,CLR,SKC,0.00,0.0,WeatherDisplay:10.37,2013-03-11 00:43:00,
2013-03-10 20:48:00,52.9,37.2,30.26,WSW,241,0.0,0.0,55,0.00,CLR,SKC,0.00,0.0,WeatherDisplay:10.37,2013-03-11 00:48:00,
2013-03-10 20:53:00,53.4,39.0,30.26,WNW,285,2.3,0.0,58,0.00,CLR,SKC,0.00,0.0,WeatherDisplay:10.37,2013-03-11 00:53:00,
2013-03-10 20:58:00,53.1,37.8,30.27,WNW,285,0.0,0.0,56,0.00,CLR,SKC,0.00,0.0,WeatherDisplay:10.37,2013-03-11 00:58:00,
2013-03-10 21:03:00,53.2,38.4,30.26,WNW,285,0.0,0.0,57,0.00,CLR,SKC,0.00,0.0,WeatherDisplay:10.37,2013-03-11 01:03:00,
2013-03-10 21:08:00,52.8,38.4,30.27,WNW,285,0.0,0.0,58,0.00,CLR,SKC,0.00,0.0,WeatherDisplay:10.37,2013-03-11 01:08:00,
2013-03-10 21:13:00,53.0,38.2,30.26,West,268,2.3,2.3,57,0.00,CLR,SKC,0.00,0.0,WeatherDisplay:10.37,2013-03-11 01:13:00,
2013-03-10 21:19:00,52.9,38.5,30.26,WSW,256,3.5,3.5,58,0.00,CLR,SKC,0.00,0.0,WeatherDisplay:10.37,2013-03-11 01:19:00,
2013-03-10 21:24:00,52.9,39.0,30.26,West,265,3.5,3.5,59,0.00,CLR,SKC,0.00,0.0,WeatherDisplay:10.37,2013-03-11 01:24:00,
2013-03-10 21:29:00,52.8,38.9,30.25,WNW,291,5.8,5.8,59,0.00,CLR,SKC,0.00,0.0,WeatherDisplay:10.37,2013-03-11 01:29:00,
2013-03-10 21:34:00,53.1,38.7,30.26,WNW,284,5.0,5.0,58,0.00,CLR,SKC,0.00,0.0,WeatherDisplay:10.37,2013-03-11 01:34:00,
2013-03-10 21:39:00,53.9,39.0,30.26,West,280,2.4,2.4,57,0.00,CLR,SKC,0.00,0.0,WeatherDisplay:10.37,2013-03-11 01:39:00,
2013-03-10 21:44:00,54.0,39.1,30.26,West,267,4.6,4.6,57,0.00,CLR,SKC,0.00,0.0,WeatherDisplay:10.37,2013-03-11 01:44:00,
2013-03-10 21:49:00,54.5,39.6,30.26,WSW,247,4.6,4.6,57,0.00,CLR,SKC,0.00,0.0,WeatherDisplay:10.37,2013-03-11 01:49:00,
2013-03-10 21:54:00,54.3,39.8,30.26,SSW,199,3.5,0.0,58,0.00,CLR,SKC,0.00,0.0,WeatherDisplay:10.37,2013-03-11 01:54:00,
2013-03-10 21:59:00,54.1,40.5,30.27,SSW,199,0.0,0.0,60,0.00,CLR,SKC,0.00,0.0,WeatherDisplay:10.37,2013-03-11 01:59:00,
2013-03-10 22:04:00,53.8,40.2,30.27,SSW,199,0.0,0.0,60,0.00,CLR,SKC,0.00,0.0,WeatherDisplay:10.37,2013-03-11 02:04:00,
2013-03-10 22:09:00,53.6,40.5,30.28,SSW,199,0.0,0.0,61,0.00,CLR,SKC,0.00,0.0,WeatherDisplay:10.37,2013-03-11 02:09:00,
2013-03-10 22:14:00,52.8,40.1,30.28,SSW,199,0.0,0.0,62,0.00,CLR,SKC,0.00,0.0,WeatherDisplay:10.37,2013-03-11 02:14:00,
2013-03-10 22:19:00,52.4,39.8,30.28,SSW,199,0.0,0.0,62,0.00,CLR,SKC,0.00,0.0,WeatherDisplay:10.37,2013-03-11 02:19:00,
2013-03-10 22:24:00,52.1,40.3,30.27,SSW,199,0.0,0.0,64,0.00,CLR,SKC,0.00,0.0,WeatherDisplay:10.37,2013-03-11 02:24:00,
2013-03-10 22:29:00,51.4,40.0,30.28,SSW,199,0.0,0.0,65,0.00,CLR,SKC,0.00,0.0,WeatherDisplay:10.37,2013-03-11 02:29:00,
2013-03-10 22:34:00,51.2,40.2,30.29,SSW,199,0.0,0.0,66,0.00,CLR,SKC,0.00,0.0,WeatherDisplay:10.37,2013-03-11 02:34:00,
2013-03-10 22:39:00,51.2,40.2,30.29,SSW,199,0.0,0.0,66,0.00,CLR,SKC,0.00,0.0,WeatherDisplay:10.37,2013-03-11 02:39:00,
2013-03-10 22:44:00,50.7,39.7,30.29,SSW,199,0.0,0.0,66,0.00,CLR,SKC,0.00,0.0,WeatherDisplay:10.37,2013-03-11 02:44:00,
2013-03-10 22:49:00,50.7,40.1,30.29,SSW,199,0.0,0.0,67,0.00,CLR,SKC,0.00,0.0,WeatherDisplay:10.37,2013-03-11 02:49:00,
2013-03-10 22:54:00,50.1,39.9,30.29,SSW,199,0.0,0.0,68,0.00,CLR,SKC,0.00,0.0,WeatherDisplay:10.37,2013-03-11 02:54:00,
2013-03-10 22:59:00,49.6,40.6,30.29,SSW,199,0.0,0.0,71,0.00,CLR,SKC,0.00,0.0,WeatherDisplay:10.37,2013-03-11 02:59:00,
2013-03-10 23:04:00,49.3,40.3,30.28,SSW,199,0.0,0.0,71,0.00,CLR,SKC,0.00,0.0,WeatherDisplay:10.37,2013-03-11 03:04:00,
2013-03-10 23:09:00,48.9,40.3,30.28,SSW,199,0.0,0.0,72,0.00,CLR,SKC,0.00,0.0,WeatherDisplay:10.37,2013-03-11 03:09:00,
2013-03-10 23:14:00,48.4,40.5,30.29,WNW,292,2.7,2.7,74,0.00,CLR,SKC,0.00,0.0,WeatherDisplay:10.37,2013-03-11 03:14:00,
2013-03-10 23:19:00,48.3,40.7,30.28,West,267,2.3,2.3,75,0.00,CLR,SKC,0.00,0.0,WeatherDisplay:10.37,2013-03-11 03:19:00,
2013-03-10 23:24:00,48.9,41.3,30.28,NNW,329,2.3,2.3,75,0.00,CLR,SKC,0.00,0.0,WeatherDisplay:10.37,2013-03-11 03:24:00,
2013-03-10 23:29:00,49.0,41.4,30.28,NW,306,1.1,0.0,75,0.00,CLR,SKC,0.00,0.0,WeatherDisplay:10.37,2013-03-11 03:29:00,
2013-03-10 23:34:00,48.9,41.3,30.28,NW,306,0.0,0.0,75,0.00,CLR,SKC,0.00,0.0,WeatherDisplay:10.37,2013-03-11 03:34:00,
2013-03-10 23:39:00,49.0,41.8,30.28,NW,306,0.0,0.0,76,0.00,CLR,SKC,0.00,0.0,WeatherDisplay:10.37,2013-03-11 03:39:00,
2013-03-10 23:44:00,48.7,41.5,30.29,NW,306,0.0,0.0,76,0.00,CLR,SKC,0.00,0.0,WeatherDisplay:10.37,2013-03-11 03:44:00,
2013-03-10 23:49:00,48.3,41.8,30.29,NW,306,0.0,0.0,78,0.00,CLR,SKC,0.00,0.0,WeatherDisplay:10.37,2013-03-11 03:49:00,
2013-03-10 23:54:00,47.6,41.1,30.29,West,271,2.3,2.3,78,0.00,CLR,SKC,0.00,0.0,WeatherDisplay:10.37,2013-03-11 03:54:00,
2013-03-10 23:59:00,47.0,40.5,30.29,SW,222,1.1,1.1,78,0.00,CLR,SKC,0.00,0.0,WeatherDisplay:10.37,2013-03-11 03:59:00,